Theta_e
335 335 334 332 332 332 331 331 331 332 333 336 336 335 336 336 337 336 336 339 339 341 344 347 349 348 347 345 345 343 344 342 341 340 341 343 345 345 344 343 341 339 338
334 333 332 332 332 333 332 331 330 331 332 334 334 336 335 336 336 334 334 339 337 339 343 346 348 348 346 345 346 343 343 342 340 340 340 343 342 344 343 340 338 337 336
336 335 333 333 333 333 333 332 332 332 332 333 333 334 335 335 333 332 336 338 339 339 343 344 346 347 347 347 345 344 342 340 338 339 339 340 341 342 340 338 336 334 334
337 335 333 333 332 333 332 330 330 328 330 331 332 333 333 333 333 333 335 339 339 341 343 344 346 346 347 346 346 344 341 339 338 338 339 340 340 339 338 335 334 334 333
336 335 334 331 333 331 330 330 330 329 329 330 331 332 333 332 333 334 338 339 341 343 345 344 344 344 344 345 345 344 341 339 338 337 339 339 338 338 337 336 333 332 331
335 335 332 333 332 330 329 329 330 329 330 331 330 330 333 335 337 337 337 338 337 344 346 346 348 344 343 344 344 343 342 340 339 339 338 338 338 337 336 333 332 332 330
335 334 332 331 330 329 330 330 328 327 329 331 327 324 326 329 333 337 336 336 336 341 344 347 348 345 344 343 343 342 342 340 340 338 338 337 338 336 334 332 332 330 329
336 334 331 327 330 329 330 328 328 326 328 329 326 327 319 326 329 334 333 334 335 338 342 343 344 342 340 340 340 342 341 340 341 338 338 337 336 335 333 332 331 329 328
334 333 330 329 330 331 328 328 328 329 326 328 331 326 317 318 323 332 331 334 337 335 335 338 341 341 340 338 340 340 339 339 338 338 337 336 335 333 332 331 330 329 328
332 333 333 332 332 330 330 328 329 330 330 326 327 332 332 329 321 319 329 332 335 333 334 338 337 339 336 336 338 336 335 337 336 336 335 333 333 333 332 331 330 329 328
332 331 333 332 332 330 330 329 329 330 330 330 330 330 331 331 331 326 320 326 330 331 332 333 335 333 333 334 334 333 333 332 332 332 333 333 334 333 332 331 330 329 328
331 333 331 332 332 330 330 329 330 328 327 332 333 333 332 329 329 329 322 324 323 326 329 332 333 332 331 333 333 332 330 329 328 329 331 334 335 334 332 331 330 329 329
331 332 333 332 330 332 331 331 331 331 331 332 333 331 333 334 333 332 326 322 321 324 325 330 331 331 331 331 331 331 330 326 325 325 327 329 331 332 332 331 330 329 328
331 334 332 332 332 331 331 332 331 331 332 333 330 325 329 330 332 335 327 324 320 322 324 323 329 330 330 330 330 330 327 325 324 322 322 324 326 328 329 329 330 330 328
332 333 333 331 332 332 331 332 330 331 332 333 333 329 328 332 333 333 333 327 324 318 319 323 324 327 328 329 330 329 328 324 324 321 321 321 322 324 324 325 325 325 325
333 332 333 333 332 332 331 332 331 332 332 332 331 330 331 332 332 331 329 329 330 326 318 325 324 326 328 329 330 330 328 325 322 320 320 319 319 320 321 321 322 322 323
333 332 332 332 332 331 332 332 332 331 330 327 328 328 327 330 330 330 330 329 327 326 321 322 325 327 326 326 327 327 328 326 324 320 321 319 317 317 318 318 318 319 319
332 332 331 331 328 327 329 329 327 328 327 326 327 327 327 328 330 329 331 330 328 326 323 320 322 323 324 325 325 325 325 326 326 321 318 317 315 315 316 315 315 314 312
332 332 331 326 325 327 327 327 326 325 326 327 328 327 328 330 330 329 327 328 327 328 325 322 320 323 323 324 324 324 323 324 325 322 317 317 316 316 315 313 312 310 307
331 330 329 325 325 326 326 326 326 326 328 328 329 330 329 330 329 327 326 327 326 324 324 323 321 321 322 323 322 318 318 323 322 325 316 316 315 312 311 311 309 307 304
332 331 329 325 325 325 325 325 325 326 327 327 328 329 330 327 322 325 326 328 327 323 322 321 320 320 319 320 319 321 321 323 322 324 323 323 320 316 313 308 308 305 303
328 331 329 326 324 324 306 311 321 326 327 327 326 326 325 321 317 312 313 314 323 323 321 320 320 319 320 320 321 323 319 319 317 325 317 314 315 313 313 309 303 302 301
331 326 330 327 322 322 305 307 312 328 328 326 324 325 323 321 322 320 312 311 311 310 315 323 321 321 320 324 327 323 323 321 322 322 316 311 313 309 308 304 301 299 299
328 327 324 327 321 317 302 303 310 328 328 327 325 325 324 323 323 323 322 320 321 323 323 326 328 327 329 329 330 329 325 321 321 321 321 310 313 308 307 305 300 298 297
330 328 328 327 319 312 300 301 317 325 326 325 327 326 324 328 303 307 320 320 320 319 304 302 303 302 303 306 316 322 319 320 317 318 319 313 311 309 309 306 303 298 296
329 329 328 327 314 315 300 303 318 324 322 322 324 321 310 321 300 305 325 326 323 320 319 321 321 313 316 311 309 330 325 322 319 314 317 314 312 311 308 309 307 305 305
Wind_Speed
8 8 7 7 7 6 6 6 6 6 6 8 8 8 9 9 8 5 5 7 10 13 13 16 19 23 24 22 20 23 25 19 16 13 15 17 18 19 19 18 17 16 15
7 8 8 8 8 7 6 6 5 5 6 6 7 8 8 7 6 7 6 6 10 12 12 14 17 23 24 20 22 22 21 24 17 12 15 19 20 18 18 17 17 16 16
9 9 8 8 8 7 7 6 5 5 5 5 6 6 6 6 6 7 6 6 6 9 11 13 17 22 23 22 23 24 22 24 20 15 16 17 19 17 17 19 18 18 16
9 9 8 7 5 6 6 5 5 5 6 6 6 5 4 5 6 7 6 6 6 5 7 13 17 21 21 25 25 24 22 21 19 16 16 17 18 17 17 19 18 19 17
9 8 7 5 6 5 5 5 5 6 5 5 5 4 3 4 5 4 6 6 5 6 5 10 14 20 23 28 27 27 27 22 19 18 18 19 19 18 18 18 20 18 17
8 7 6 6 6 6 5 5 6 5 5 5 5 3 2 3 2 3 1 2 4 5 5 6 8 10 20 24 26 27 26 25 22 21 20 19 19 18 18 20 19 18 16
7 6 5 6 6 6 7 7 5 7 4 5 5 4 2 2 3 2 2 1 0 1 4 4 7 6 9 21 22 26 27 26 23 23 18 18 19 19 18 18 17 16 15
5 6 6 5 7 5 6 7 8 5 3 6 4 6 5 4 3 3 2 2 2 1 2 3 10 12 8 7 15 23 29 28 26 24 20 17 17 19 20 17 16 15 13
4 6 7 7 7 6 6 7 9 9 6 5 6 3 4 3 5 3 4 3 4 3 2 5 10 12 11 8 14 19 25 25 26 24 22 19 18 19 19 16 15 13 12
3 5 6 7 7 5 5 7 8 7 6 7 5 3 2 5 4 5 2 4 5 5 3 5 6 8 10 8 16 22 23 27 27 25 21 21 18 19 18 15 14 12 11
2 4 5 7 6 5 6 8 9 7 4 6 5 5 3 3 3 4 7 5 2 4 3 4 7 5 8 9 9 11 22 25 23 21 19 18 17 17 16 15 13 11 10
2 4 5 5 5 5 7 8 8 5 5 4 5 4 3 2 3 3 4 6 4 2 4 4 4 6 9 8 19 20 21 21 18 15 12 13 15 16 16 14 13 11 9
4 5 5 5 5 6 7 7 7 6 5 4 6 3 2 2 2 3 8 4 3 2 2 2 4 4 8 10 17 23 21 17 14 12 10 12 13 13 12 12 11 10 8
4 5 5 5 5 6 7 7 5 4 3 4 6 3 4 1 3 6 7 9 7 3 2 1 2 4 11 13 18 24 13 14 11 9 9 10 11 11 10 10 8 6 4
4 6 6 5 5 6 7 7 5 5 5 5 7 6 3 2 3 3 4 4 4 5 4 3 1 8 11 14 16 12 12 14 12 11 11 9 10 9 9 7 6 5 3
6 7 6 5 6 6 7 6 5 5 5 4 4 6 5 4 4 4 4 4 5 6 5 3 3 12 13 12 15 12 10 13 12 10 9 8 8 8 7 6 6 4 2
6 7 7 7 7 7 7 5 6 6 6 6 6 6 6 7 5 5 5 5 4 5 9 6 8 13 14 15 11 10 9 7 6 8 8 7 7 8 7 5 3 2 1
6 7 7 7 7 7 6 6 6 5 6 7 6 8 8 6 9 5 5 7 7 6 9 12 11 11 13 12 12 11 7 5 5 8 7 7 7 6 5 3 3 2 5
6 7 8 8 8 7 7 7 7 7 7 7 7 8 8 9 9 6 6 7 6 7 8 10 11 9 8 9 9 6 7 6 2 6 5 5 7 6 5 5 7 8 10
8 7 8 8 8 8 8 8 8 8 8 7 6 8 8 9 9 8 5 8 8 8 10 10 11 10 8 6 5 6 4 2 5 6 9 10 10 11 13 13 16 17 16
7 8 9 8 8 7 7 8 7 7 8 8 7 8 7 7 7 8 6 8 10 7 9 10 9 8 6 8 7 3 4 7 6 6 7 7 8 10 11 16 19 20 17
7 8 8 9 8 6 9 9 8 7 8 8 8 9 9 12 11 12 11 10 8 10 10 8 8 10 7 6 4 6 7 9 7 5 8 9 8 9 9 11 14 15 13
7 5 7 7 8 9 8 10 8 7 7 8 8 9 7 7 11 11 14 13 14 14 9 10 12 10 8 7 9 9 7 6 7 9 10 9 8 10 10 9 11 13 13
7 6 4 7 7 6 9 9 9 8 8 9 7 10 11 9 8 10 9 9 10 8 6 6 8 9 8 9 9 8 9 10 9 6 7 7 7 8 8 8 8 12 10
7 7 6 6 8 4 7 10 9 7 8 8 10 9 9 14 7 8 6 10 10 8 9 12 12 9 13 11 9 9 8 9 7 6 2 7 8 8 6 7 7 8 7
8 8 8 7 9 6 6 10 8 6 8 7 8 7 8 11 7 4 7 10 11 8 9 10 10 11 10 8 5 3 7 7 7 6 6 5 10 8 6 5 4 5 5
Wind_Direction
239 240 242 244 244 250 251 254 258 257 254 245 231 227 217 213 228 243 248 237 258 267 258 238 211 186 184 184 177 171 162 161 172 185 185 151 138 136 130 129 125 121 119
240 247 243 236 239 236 238 245 245 249 245 241 225 215 216 217 229 235 243 244 254 267 263 236 210 198 183 182 171 175 160 153 154 175 179 156 143 134 132 128 121 122 122
238 241 237 235 233 232 225 231 237 235 235 232 224 207 208 219 234 233 244 248 248 247 257 230 207 196 179 174 172 169 159 148 153 177 185 156 131 130 134 129 130 126 122
237 238 239 239 226 219 223 226 233 227 230 211 209 188 204 229 233 234 251 251 242 259 236 224 204 189 175 173 162 160 148 152 162 168 167 148 136 136 133 131 132 124 124
235 235 238 232 215 212 217 226 220 230 211 202 191 182 192 220 224 241 242 233 252 263 239 203 216 182 180 163 170 165 152 157 158 164 164 142 140 138 135 135 125 127 121
232 227 226 223 212 213 210 214 223 207 213 192 170 164 173 206 206 187 229 254 266 260 239 216 200 180 171 163 167 159 155 156 158 167 154 145 142 138 136 133 128 126 135
231 217 226 211 209 216 212 207 205 199 189 169 138 120 113 130 153 157 99 74 343 242 237 189 165 168 153 162 159 160 153 154 159 154 145 143 137 140 134 126 130 135 138
243 223 215 197 204 204 199 195 201 184 170 180 182 166 162 131 102 107 129 119 105 84 159 172 165 146 158 162 168 161 152 153 155 147 140 136 138 137 128 134 136 145 138
241 224 197 196 199 208 198 196 201 193 164 181 200 169 165 153 147 142 113 115 102 88 116 138 147 155 159 159 158 155 150 155 147 144 140 136 137 133 135 140 143 140 145
261 204 203 193 199 204 191 190 194 200 184 174 185 193 114 137 163 153 118 133 108 106 144 134 135 143 142 143 151 150 156 147 143 138 138 137 149 142 135 143 149 152 147
198 186 179 186 196 188 181 187 187 205 198 192 183 169 143 157 164 144 153 128 101 124 126 111 126 150 143 139 139 169 138 130 131 138 143 148 146 136 142 154 154 160 150
170 155 161 166 157 176 176 182 187 200 203 207 199 191 186 173 176 154 113 127 113 105 128 129 157 150 151 138 131 119 119 126 132 134 155 150 142 146 156 158 165 162 157
176 151 158 150 171 182 172 175 182 202 204 208 178 165 329 285 91 133 139 129 128 100 83 104 121 143 154 133 138 127 129 129 129 142 132 136 139 144 149 164 165 166 171
155 147 143 152 177 174 175 176 177 182 184 154 142 131 252 285 178 155 153 141 132 134 132 357 176 187 154 133 135 128 133 130 131 125 134 131 137 140 157 159 169 165 137
137 152 134 149 144 162 168 159 164 159 155 155 134 158 168 166 121 136 142 148 149 157 110 122 145 121 125 126 127 128 133 139 139 142 130 131 137 154 151 154 148 146 148
147 158 145 142 138 141 145 154 149 135 144 128 120 132 137 130 134 108 119 107 85 107 105 74 78 119 110 112 121 121 123 126 125 116 127 142 149 148 148 157 158 163 156
142 162 157 150 139 145 141 141 129 136 123 127 123 130 124 134 134 132 111 107 86 86 107 113 104 110 113 116 116 113 119 116 126 145 149 159 152 141 158 157 132 138 146
140 153 158 132 134 140 145 140 137 142 132 134 131 135 131 126 131 129 135 139 135 112 125 127 124 122 116 119 122 122 122 124 135 165 153 159 153 148 115 129 139 108 58
122 145 145 140 142 143 144 134 134 128 135 135 145 140 145 147 137 128 118 117 107 121 127 126 119 115 112 122 117 106 116 116 138 133 138 129 99 100 111 98 85 84 79
125 131 132 131 137 136 130 134 135 145 132 136 148 141 150 146 140 120 109 120 124 126 128 133 127 125 127 123 111 126 120 129 122 123 73 73 87 82 83 86 91 92 89
122 125 126 127 132 134 135 135 132 123 129 129 122 126 129 123 115 117 130 141 128 122 127 128 128 131 128 139 141 135 112 131 109 121 105 107 106 98 97 85 89 85 81
109 132 133 133 131 123 111 114 128 130 130 126 115 106 113 111 96 98 90 82 116 127 128 132 136 142 135 115 131 138 138 148 130 130 106 97 104 95 87 86 86 86 88
125 116 133 125 120 130 131 126 127 133 131 121 112 114 103 107 112 108 91 89 84 78 89 138 140 148 146 163 151 146 159 152 130 130 123 108 111 101 100 97 92 88 81
129 123 107 146 143 143 149 139 130 134 128 123 114 126 122 119 114 110 101 96 101 101 104 124 146 151 157 156 161 157 136 112 112 138 131 127 131 120 115 108 96 87 87
132 121 117 116 118 145 166 146 143 139 127 125 131 124 127 127 115 105 110 116 115 103 63 69 79 94 116 131 145 139 144 145 137 143 162 126 154 142 150 137 121 117 95
122 121 112 99 101 116 144 137 133 124 121 125 118 117 114 128 131 129 134 133 121 121 122 119 106 96 111 104 67 185 164 164 146 157 156 160 163 162 175 168 148 165 150